GW1480 Weather Reports


Display with metric or nautical units.
time (UTC)temp
F
wind
direction
speed
MPH
gust
MPH
rain 1hr
in
rain 24hr
in
rain mn
in
humidity
%
barometer
mb
20260505054545 54 196 0.0 0.0 0.00 0.00 0.00 91 1012.8
20260505053930 54 135 0.0 0.0 0.00 0.00 0.00 91 1012.8
20260505053309 54 60 0.0 2.0 0.00 0.00 0.00 92 1012.8
20260505051537 54 205 0.0 0.0 0.00 0.00 0.00 92 1012.8
20260505050326 54 89 2.0 2.0 0.00 0.00 0.00 92 1012.8
20260505041526 55 159 1.0 2.0 0.00 0.00 0.00 91 1012.1
20260505040919 55 208 0.0 0.0 0.00 0.00 0.00 91 1012.1
20260505035138 56 205 0.0 0.0 0.00 0.00 0.01 91 1012.1
20260505034556 56 171 0.0 0.0 0.00 0.00 0.01 91 1012.1
20260505033913 56 179 0.0 0.0 0.00 0.00 0.01 91 1012.1
20260505033320 56 190 0.0 0.0 0.00 0.00 0.01 90 1012.1
20260505032719 56 198 0.0 0.0 0.00 0.00 0.01 91 1012.1
20260505032128 56 217 0.0 0.0 0.00 0.00 0.01 91 1012.1
20260505031514 56 189 0.0 0.0 0.00 0.00 0.01 91 1012.1
20260505030941 56 182 0.0 0.0 0.00 0.00 0.01 91 1012.1
20260505030344 57 181 0.0 0.0 0.00 0.00 0.01 91 1012.1
20260505025743 57 143 0.0 0.0 0.00 0.00 0.01 90 1012.1
20260505025129 57 180 0.0 0.0 0.00 0.00 0.01 90 1012.1
20260505024538 57 164 0.0 0.0 0.00 0.00 0.01 90 1011.8
20260505022123 58 192 0.0 0.0 0.00 0.00 0.01 89 1011.8
20260505021511 58 203 0.0 0.0 0.00 0.00 0.01 89 1011.8
20260505020926 58 219 0.0 0.0 0.00 0.00 0.01 89 1011.8
20260505020317 58 161 1.0 2.0 0.00 0.00 0.01 88 1011.8
20260505015154 59 117 0.0 2.0 0.00 0.00 0.01 88 1011.8
20260505014530 59 116 0.0 0.0 0.00 0.00 0.01 87 1011.8
20260505013918 60 238 0.0 0.0 0.00 0.00 0.01 86 1011.8
20260505013318 60 121 0.0 0.0 0.00 0.00 0.01 85 1011.8
20260505012711 61 166 0.0 0.0 0.00 0.00 0.01 85 1011.8
20260505012147 61 118 0.0 0.0 0.00 0.00 0.01 84 1011.8
20260505011536 62 175 0.0 0.0 0.00 0.00 0.01 83 1011.8
20260505010914 62 162 0.0 0.0 0.00 0.00 0.01 83 1011.8
20260505010331 62 156 0.0 0.0 0.00 0.00 0.01 82 1011.8
20260505005751 63 164 0.0 0.0 0.00 0.00 0.01 82 1011.5
20260505005121 64 207 0.0 0.0 0.00 0.00 0.01 82 1011.8
20260505004534 64 190 0.0 0.0 0.00 0.00 0.01 81 1011.5
20260505003929 65 148 0.0 0.0 0.00 0.00 0.01 80 1011.5
20260505003354 65 204 0.0 0.0 0.00 0.00 0.01 80 1011.5
20260505002111 67 201 0.0 0.0 0.00 0.00 0.01 77 1011.5
20260505001513 69 190 0.0 0.0 0.00 0.00 0.01 75 1011.8
20260505000916 70 209 0.0 0.0 0.00 0.00 0.01 78 1011.8
20260505000318 72 230 0.0 0.0 0.00 0.00 0.01 77 1011.8
20260504235715 73 229 0.0 0.0 0.00 0.00 0.01 74 1011.5
20260504234528 76 186 0.0 0.0 0.00 0.00 0.01 57 1011.8
20260504233933 76 205 0.0 0.0 0.00 0.00 0.01 62 1011.8
20260504233341 77 60 4.0 7.0 0.00 0.00 0.01 56 1011.5
20260504232715 77 211 0.0 0.0 0.00 0.00 0.01 59 1011.5
20260504232153 77 231 0.0 0.0 0.00 0.00 0.01 47 1011.5
20260504231519 77 219 0.0 0.0 0.00 0.00 0.01 53 1011.5
20260504230952 77 221 0.0 0.0 0.00 0.00 0.01 54 1011.5
20260504225714 77 59 2.0 5.0 0.00 0.00 0.01 48 1011.8
20260504225147 77 28 0.0 0.0 0.00 0.00 0.01 57 1011.5
20260504224511 77 237 0.0 0.0 0.00 0.00 0.01 50 1011.5
20260504223935 78 277 0.0 2.0 0.00 0.00 0.01 47 1011.8
20260504223316 78 233 0.0 0.0 0.00 0.00 0.01 55 1011.8
20260504222753 79 273 4.0 7.0 0.00 0.00 0.01 48 1011.8
20260504222112 79 272 0.0 2.0 0.00 0.00 0.01 49 1011.8
20260504221522 79 332 0.0 2.0 0.00 0.00 0.01 47 1011.8
20260504220927 80 96 4.0 7.0 0.00 0.00 0.01 48 1011.8
20260504220316 80 237 4.0 7.0 0.00 0.00 0.01 46 1011.8
20260504215123 81 320 1.0 5.0 0.00 0.00 0.01 48 1011.8
20260504214552 80 265 5.0 10.0 0.00 0.00 0.01 46 1011.8
20260504213951 80 107 0.0 0.0 0.00 0.00 0.01 45 1011.8
20260504211527 78 207 2.0 5.0 0.00 0.00 0.01 50 1012.1
20260504210950 77 200 2.0 5.0 0.00 0.00 0.01 51 1012.1
20260504210330 77 146 0.0 0.0 0.00 0.00 0.01 53 1012.1
20260504205734 77 20 4.0 5.0 0.00 0.00 0.01 53 1012.1
20260504205140 76 247 0.0 2.0 0.00 0.00 0.01 55 1012.5
20260504204542 76 258 3.0 5.0 0.00 0.00 0.01 53 1012.1
20260504203931 76 166 2.0 5.0 0.00 0.00 0.01 52 1012.5
20260504202734 76 74 12.0 15.0 0.00 0.00 0.01 52 1012.8
20260504202114 75 79 3.0 5.0 0.00 0.00 0.01 51 1012.5
20260504201541 75 285 2.0 5.0 0.00 0.00 0.01 50 1012.5
20260504200320 74 273 2.0 5.0 0.00 0.00 0.01 51 1012.8
20260504195752 73 295 0.0 2.0 0.00 0.00 0.01 52 1013.2
20260504195124 73 173 0.0 2.0 0.00 0.00 0.01 54 1013.2
20260504194552 72 232 2.0 5.0 0.00 0.00 0.01 55 1013.5
20260504193936 71 189 4.0 7.0 0.00 0.00 0.01 54 1013.5
20260504193337 71 86 4.0 7.0 0.00 0.00 0.01 56 1013.5
20260504192722 70 225 1.0 5.0 0.00 0.00 0.01 57 1013.5
20260504192139 69 152 4.0 7.0 0.00 0.00 0.01 60 1013.5
20260504191533 69 254 0.0 2.0 0.00 0.00 0.01 63 1013.8
20260504190949 69 229 0.0 2.0 0.00 0.00 0.01 63 1013.8
20260504185733 72 271 2.0 5.0 0.00 0.00 0.00 65 1014.2
20260504184535 73 242 4.0 7.0 0.00 0.00 0.00 54 1013.8
20260504183943 73 214 4.0 5.0 0.00 0.00 0.00 52 1013.8
20260504183329 73 77 2.0 2.0 0.00 0.00 0.00 51 1013.8
20260504182741 72 350 1.0 2.0 0.00 0.00 0.00 52 1013.5
20260504182142 72 49 4.0 7.0 0.00 0.00 0.00 51 1013.5
20260504181512 72 85 2.0 5.0 0.00 0.00 0.00 53 1013.5
20260504180923 72 142 1.0 5.0 0.00 0.00 0.00 52 1013.5
20260504180320 71 43 4.0 5.0 0.00 0.00 0.00 54 1013.5
20260504175748 71 316 4.0 5.0 0.00 0.00 0.00 54 1013.5
20260504174534 71 97 4.0 5.0 0.00 0.00 0.00 54 1013.8
20260504173931 71 238 4.0 7.0 0.00 0.00 0.00 55 1014.2
20260504172713 70 18 1.0 2.0 0.00 0.00 0.00 53 1013.8
20260504172134 70 268 2.0 5.0 0.00 0.00 0.00 59 1014.2
20260504171554 69 312 4.0 7.0 0.00 0.00 0.00 58 1014.2
20260504170919 69 152 0.0 2.0 0.00 0.00 0.00 57 1014.5
20260504170335 68 97 4.0 7.0 0.00 0.00 0.00 60 1014.5
20260504160347 65 265 1.0 2.0 0.00 0.00 0.00 69 1015.9
20260504150915 62 78 2.0 5.0 0.00 0.00 0.00 68 1016.2
20260504140937 60 324 1.0 2.0 0.00 0.00 0.00 68 1017.2
20260504140321 60 173 1.0 2.0 0.00 0.00 0.00 67 1016.9
20260504130318 59 40 4.0 7.0 0.00 0.00 0.00 62 1016.2
20260504110322 42 213 2.0 5.0 0.00 0.00 0.00 94 1015.9
20260504100350 42 229 1.0 2.0 0.00 0.00 0.00 93 1016.2
20260504081552 44 236 1.0 2.0 0.00 0.00 0.00 92 1016.5
20260504080329 44 206 0.0 0.0 0.00 0.00 0.00 91 1016.5
20260504070351 47 201 0.0 0.0 0.00 0.00 0.00 89 1016.9